This demonstration page uses our WeatherBlox Daily Observations layout. Learn more.

Left ArrowRight Arrow

39.12711, -84.51439

Hourly Observations for September 24, 2018

Temp ( °F °C ) Dew Point ( °F °C ) Humidity (%) Winds ( mph kmh ) Pressure ( in mb ) Visibility ( mi km ) Precip ( " mm )
12:00 am 00:00 Cloudy 63 17.2 60 15.6 90 90 NE 3 6 30.09 1019 10 16 0.00 0.00
12:53 am 00:53 Cloudy 63 17.2 61 16.1 93 93 N 3 6 30.12 1020 10 16 0.00 0.00
1:53 am 01:53 Cloudy 63 17.2 61 16.1 93 93 NNE 3 6 30.11 1020 10 16 0.00 0.00
2:53 am 02:53 Cloudy 63 17.2 61 16.1 93 93 NE 3 6 30.10 1019 10 16 0.00 0.00
3:03 am 03:03 Cloudy 63 17.2 61 16.1 93 93 Calm 30.09 1019 10 16 0.00 0.00
3:53 am 03:53 Cloudy with Light Rain 64 17.8 62 16.7 93 93 NNE 3 6 30.10 1019 9 14 0.00 0.03
4:53 am 04:53 Cloudy with Rain 63 17.2 63 17.2 100 100 Calm 30.10 1019 3 4 0.04 1.02
5:02 am 05:02 Cloudy with Heavy Rain 63 17.2 63 17.2 100 100 Calm 30.09 1019 2 3 0.06 1.52
5:13 am 05:13 Cloudy with Rain 63 17.2 63 17.2 100 100 NE 3 6 30.09 1019 3 5 0.10 2.54
5:23 am 05:23 Cloudy with Rain 63 17.2 63 17.2 100 100 NNW 3 6 30.09 1019 5 8 0.12 3.05
5:53 am 05:53 Cloudy with Light Rain 63 17.2 63 17.2 100 100 E 3 6 30.10 1019 7 11 0.14 3.56
6:53 am 06:53 Cloudy with Light Rain 63 17.2 63 17.2 100 100 NNE 3 6 30.11 1020 5 8 0.03 0.76
7:53 am 07:53 Cloudy with Light Rain 64 17.8 64 17.8 100 100 NE 3 6 30.11 1020 5 8 0.02 0.51
8:53 am 08:53 Cloudy with Mist and Fog 65 18.3 65 18.3 100 100 Calm 30.12 1020 5 8 0.01 0.25
9:53 am 09:53 Cloudy with Light Rain 66 18.9 66 18.9 100 100 Calm 30.13 1020 5 8 0.01 0.25
10:18 am 10:18 Cloudy with Rain 67 19.4 67 19.4 100 100 Calm 30.09 1019 2 3 0.05 1.27
10:53 am 10:53 Cloudy with Rain 67 19.4 67 19.4 100 100 Calm 30.12 1020 3 5 0.09 2.29
11:53 am 11:53 Cloudy with Rain 69 20.6 68 20 96 96 Calm 30.11 1020 5 8 0.09 2.29
12:53 pm 12:53 Cloudy with Rain 69 20.6 69 20.6 100 100 S 3 6 30.11 1020 4 6 0.11 2.79
1:53 pm 13:53 Cloudy with Light Rain 70 21.1 70 21.1 100 100 SE 7 11 30.09 1019 3 5 0.12 3.05
2:53 pm 14:53 Cloudy with Rain 71 21.7 70 21.1 96 96 SSE 10 17 30.05 1018 3 5 0.10 2.54
3:53 pm 15:53 Cloudy with Heavy Rain 70 21.1 70 21.1 100 100 SSE 9 15 30.04 1017 2 2 0.17 4.32
4:37 pm 16:37 Cloudy with Rain 70 21.1 70 21.1 100 100 SSE 13 20 30.00 1016 3 5 0.00 0.00
4:53 pm 16:53 Cloudy with Light Rain 70 21.1 70 21.1 100 100 SSE 10 17 30.03 1017 4 6 0.00 0.00
5:28 pm 17:28 Cloudy with Heavy Rain 70 21.1 70 21.1 100 100 S 14 22 30.00 1016 2 3 0.08 2.03
5:37 pm 17:37 Cloudy with Light Rain 69 20.6 69 20.6 100 100 SSE 12 19 30.00 1016 2 3 0.14 3.56
5:53 pm 17:53 Cloudy with Light Rain 69 20.6 69 20.6 100 100 S 9 15 30.03 1017 2 3 0.17 4.32
6:53 pm 18:53 Cloudy with Light Rain 69 20.6 69 20.6 100 100 SSE 15 24 30.02 1017 6 10 0.04 1.02
7:53 pm 19:53 Cloudy 69 20.6 69 20.6 100 100 S 8 13 30.02 1017 10 16 0.00 0.03
8:43 pm 20:43 Cloudy 69 20.6 69 20.6 100 100 S 9 15 30.00 1016 10 16 0.00 0.00
8:53 pm 20:53 Cloudy 69 20.6 69 20.6 100 100 S 12 19 30.03 1017 10 16 0.00 0.00
9:53 pm 21:53 Cloudy 69 20.6 69 20.6 100 100 S 10 17 30.04 1017 10 16 0.00 0.00
10:53 pm 22:53 Cloudy 69 20.6 69 20.6 100 100 S 10 17 30.05 1018 10 16 0.00 0.00
11:17 pm 23:17 Cloudy 69 20.6 69 20.6 100 100 S 12 19 30.03 1017 10 16 0.00 0.00
11:53 pm 23:53 Cloudy 69 20.6 69 20.6 100 100 S 9 15 30.06 1018 10 16 0.00 0.00

Powered by AerisWeather